Home > Weather > Paradise > Past weeks

Flag for USA Past Weather in Paradise, Nevada, USA — Yesterday and Last 2 Weeks

Now
94 °F

Passing clouds.


Feels Like: 90 °F
Forecast: 86 / 112 °F
Wind: 3 mph from South

Location: McCarran International Airport

Current Time: Jul 29, 2016 at 5:16:04 AM

Latest Report: Jul 29, 2016 at 4:56 AM


Visibility: 10 mi

Pressure: 29.69 "Hg (27.64 "Hg at 643m altitude)

Humidity: 21%

Dew Point: 48 °F

Location of ParadiseLocation

Past Weather in Paradise — Graph

°F

Paradise Temperature Yesterday

Maximum temperature yesterday: 114 °F (at 2:56 PM)
Minimum temperature yesterday: 92 °F (at 4:56 AM)
Average temperature yesterday: 103 °F

High & Low Weather Summary for the Past Weeks

 TemperatureHumidityPressure
High114 °F (Jul 28, 2:56 PM)29% (Jul 26, 5:56 AM)29.89 "Hg (Jul 26, 5:56 AM)
Low81 °F (Jul 14, 5:56 AM)2% (Jul 15, 1:56 PM)29.60 "Hg (Jul 16, 6:56 PM)
Average99 °F10%29.74 "Hg
* Reported Jul 14 3:56 AM — Jul 29 3:56 AM, Paradise, Weather by CustomWeather, © 2016

Note: Actual official high and low records may vary slightly from our data, if they occured in-between our weather recording intervals... More about our weather records

Advertising

Paradise Weather History for the Previous 24 Hours

Scroll right to see more
 ConditionsComfort  
Time TempWeatherWind HumidityBarometerVisibility
3:56 AM
Fri, Jul 29
95 °FPassing clouds.5 mph20%29.68 "Hg10 mi
2:56 AM97 °FPassing clouds.8 mph18%29.67 "Hg10 mi
1:56 AM97 °FPassing clouds.7 mph18%29.67 "Hg10 mi
12:56 AM98 °FPassing clouds.6 mph17%29.68 "Hg10 mi
11:56 PM
Thu, Jul 28
100 °FPassing clouds.5 mph16%29.70 "Hg10 mi
10:56 PM102 °FPassing clouds.9 mph13%29.72 "Hg10 mi
9:56 PM103 °FPartly cloudy.7 mph13%29.75 "Hg10 mi
8:56 PM103 °FPartly cloudy.10 mph13%29.70 "Hg10 mi
7:56 PM107 °FPartly sunny.No wind10%29.66 "Hg10 mi
6:56 PM110 °FPartly sunny.16 mph8%29.64 "Hg10 mi
5:56 PM113 °FScattered clouds.5 mph6%29.62 "Hg10 mi
4:56 PM113 °FBroken clouds.No wind6%29.62 "Hg10 mi
3:56 PM113 °FBroken clouds.No wind7%29.64 "Hg10 mi
2:56 PM114 °FBroken clouds.5 mph7%29.66 "Hg10 mi
1:56 PM112 °FBroken clouds.5 mph8%29.69 "Hg10 mi
12:56 PM111 °FScattered clouds.No wind9%29.71 "Hg10 mi
11:56 AM106 °FPartly sunny.No wind10%29.74 "Hg10 mi
10:56 AM104 °FPartly sunny.3 mph12%29.75 "Hg10 mi
9:56 AM100 °FPartly sunny.No wind15%29.75 "Hg10 mi
8:56 AM99 °FBroken clouds.No wind15%29.75 "Hg10 mi
7:56 AM96 °FScattered clouds.3 mph18%29.75 "Hg10 mi
6:56 AM94 °FScattered clouds.No wind19%29.73 "Hg10 mi
5:56 AM93 °FPartly cloudy.No wind18%29.70 "Hg10 mi
Weather by CustomWeather, © 2016

See weather overviewHow to use our weather pages